Dewpoint
48 47 49 50 48 49 49 50 50 51 51 51 52 50 49 49 51 52 48 50 50 51 53 52 53 52 49 45 46 40 36 21 13 16 18 39 39 33 35 36 34 35 38 39 47
48 48 48 48 48 49 50 50 50 50 51 50 50 51 48 50 50 48 50 51 51 52 52 50 49 48 45 43 44 40 36 31 20 27 32 38 37 34 36 34 34 36 43 46 47
49 48 48 48 48 50 50 50 50 51 51 51 51 51 51 51 45 44 53 51 51 52 53 51 48 45 42 40 42 39 34 32 28 29 33 36 34 34 35 35 34 34 42 45 46
49 48 48 48 49 50 50 50 50 50 51 50 50 50 51 48 32 47 52 53 53 53 51 50 48 42 38 39 43 37 37 29 29 27 31 33 32 33 33 33 32 38 44 45 45
49 47 48 49 50 50 50 50 49 49 50 49 50 51 48 43 41 51 51 51 49 51 49 47 46 41 38 40 41 35 30 26 27 29 30 31 32 31 29 36 40 43 44 44 44
49 49 49 49 50 50 50 50 48 49 50 49 51 49 44 38 49 51 50 51 48 49 47 45 45 44 40 41 40 38 27 26 26 27 26 30 27 29 31 40 42 42 43 43 43
49 49 49 49 50 50 50 50 49 49 49 49 49 46 42 42 50 51 49 49 48 49 44 48 48 43 40 39 33 28 25 25 25 25 26 27 28 28 33 39 40 41 42 42 43
49 49 49 49 49 50 50 50 51 50 50 48 49 46 39 49 50 48 49 48 49 52 47 49 50 46 37 34 28 25 25 23 24 24 24 28 30 26 33 37 37 39 40 41 42
49 50 51 50 50 51 50 50 51 51 47 46 44 42 38 50 47 48 50 47 48 50 49 49 46 40 32 28 26 24 23 24 22 23 23 27 24 27 32 34 35 37 38 39 39
50 49 49 50 51 51 50 48 48 43 43 44 43 36 36 40 44 47 50 50 46 46 43 42 40 34 31 30 25 22 22 23 22 22 22 24 23 28 31 32 33 33 34 35 36
49 49 48 48 50 51 48 41 36 35 40 39 40 40 41 44 45 45 47 47 45 41 36 38 34 32 33 30 26 22 23 22 22 23 21 22 24 27 28 30 31 30 30 31 33
46 48 48 48 50 50 44 39 39 39 35 40 40 40 42 45 41 41 47 41 40 36 37 35 32 34 32 28 23 22 23 22 22 22 22 19 20 23 24 27 28 28 28 29 31
48 49 48 48 50 42 42 42 45 43 33 35 39 40 40 43 40 39 43 41 37 36 35 32 34 36 29 24 21 21 23 22 21 20 21 21 19 20 21 22 23 25 26 27 28
46 48 48 48 42 40 40 45 47 37 26 29 37 40 42 42 38 42 44 40 37 35 36 34 36 32 26 23 21 18 21 22 20 19 18 17 17 16 20 21 21 21 22 23 24
46 48 48 48 40 38 42 44 44 33 15 30 37 44 41 37 38 37 43 41 36 35 35 32 33 30 25 25 23 20 24 21 17 15 16 16 8 9 17 19 21 21 21 20 21
47 47 48 44 42 43 44 41 34 20 18 30 38 37 36 37 36 38 39 41 39 34 35 35 36 32 28 27 25 21 18 17 17 15 8 15 10 3 12 17 19 20 21 22 21
47 48 49 43 39 44 42 36 23 20 27 29 33 36 35 33 35 35 35 36 34 28 30 33 29 31 29 24 25 19 17 12 9 7 6 20 10 6 9 27 26 24 25 23 27
47 48 47 45 44 43 38 27 20 25 30 35 36 35 32 35 35 33 35 32 34 31 30 28 25 28 31 25 22 19 16 10 4 5 8 20 8 6 16 33 33 31 32 35 36
46 43 43 44 44 41 34 23 24 26 32 33 32 30 32 34 35 34 32 29 29 28 25 22 25 30 31 30 25 22 18 17 14 17 10 15 16 17 25 32 33 34 35 35 36
39 42 43 44 43 38 30 27 29 31 34 33 28 28 27 30 30 29 28 30 29 30 28 23 24 29 28 28 26 22 23 17 17 6 0 11 13 8 22 29 33 34 34 36 37
41 39 44 44 41 33 25 27 30 32 33 32 29 27 26 26 26 26 27 30 32 30 28 25 23 25 26 24 21 23 20 21 20 17 4 5 7 19 21 29 31 33 34 35 36
40 32 44 43 33 30 28 29 32 31 32 32 32 29 26 28 28 27 27 29 35 33 27 28 23 20 23 30 31 27 19 17 11 12 18 11 8 24 28 28 31 32 33 33 33
37 37 44 39 22 26 31 31 32 32 32 31 30 30 29 28 26 29 30 34 33 31 28 27 20 18 17 19 26 24 26 20 18 20 16 10 7 27 29 29 31 32 29 30 26
36 32 37 36 31 27 29 28 28 32 31 30 29 29 28 28 31 29 30 34 34 33 33 28 21 16 15 15 21 20 24 22 19 12 10 13 10 22 28 29 31 29 24 24 22
33 26 31 25 27 29 29 29 28 27 29 27 26 26 26 27 28 28 31 32 33 33 29 28 22 21 20 24 24 21 20 24 19 16 10 8 12 14 27 29 29 26 21 19 21
32 28 30 27 28 26 25 26 26 26 26 24 25 27 26 26 28 26 29 30 28 31 27 25 22 21 20 19 18 19 21 22 24 22 18 18 16 19 22 29 26 23 19 19 21
36 35 29 27 25 24 22 23 24 26 27 28 25 27 27 28 29 30 31 30 31 29 26 23 21 21 16 17 14 11 14 20 23 24 20 15 16 20 22 28 26 23 19 19 20
Wind_Speed
11 11 12 14 15 16 17 18 22 23 20 21 16 14 14 12 12 8 12 7 11 20 14 5 9 6 5 5 5 4 5 15 12 15 10 13 11 3 4 11 2 1 4 5 23
11 11 12 14 15 16 17 19 20 23 20 19 16 15 9 11 7 12 8 10 15 14 8 8 11 10 6 6 8 8 12 8 5 6 10 18 11 16 9 10 3 3 8 21 22
11 12 14 15 15 15 16 17 19 22 20 17 16 14 11 2 4 3 6 15 16 12 9 9 7 9 8 6 10 8 12 5 2 5 4 19 13 5 16 12 9 17 22 25 24
12 12 14 14 13 14 15 16 17 19 20 14 16 14 3 2 6 1 10 10 8 7 10 9 9 13 9 11 10 6 13 3 3 2 3 13 14 10 5 4 2 14 25 25 24
11 12 13 13 14 14 14 14 15 17 16 13 12 5 5 2 7 3 11 12 8 5 13 11 13 14 17 16 13 7 7 4 4 5 3 8 8 10 4 3 15 24 22 23 21
11 11 12 13 14 14 13 12 13 14 14 13 1 3 1 11 3 8 10 9 8 9 10 8 6 6 8 14 19 13 5 6 1 4 4 11 7 4 2 9 20 22 22 19 19
11 11 12 13 15 15 15 14 14 15 15 14 1 1 4 10 9 10 10 5 5 9 11 6 2 2 2 8 8 8 11 4 2 1 5 8 7 6 6 13 20 19 19 18 18
11 12 13 14 16 17 17 18 17 15 14 8 2 0 6 3 5 14 8 8 12 7 7 17 6 5 6 5 8 9 6 11 3 3 6 4 14 3 9 19 20 20 19 18 15
13 13 13 14 17 18 19 17 12 10 10 2 0 1 8 4 5 6 3 8 14 9 7 8 6 5 3 16 12 2 14 7 6 2 4 4 7 6 9 14 19 19 19 17 15
13 13 15 15 17 17 19 13 7 6 4 2 2 2 3 9 6 9 5 8 7 14 7 6 5 2 2 11 20 14 11 5 10 2 4 7 7 13 11 15 18 17 16 16 16
12 13 14 14 16 16 10 4 3 2 8 3 4 5 9 14 6 5 7 11 9 5 5 3 5 7 11 14 9 14 15 14 3 2 6 7 14 15 13 11 16 15 15 15 16
13 13 14 13 15 15 1 1 1 1 1 2 3 4 6 5 5 12 4 5 5 8 10 5 9 7 16 10 12 9 22 12 4 4 6 7 9 8 11 9 13 16 15 15 10
12 12 12 12 15 2 1 2 1 1 1 4 1 3 6 6 6 10 4 5 9 5 5 4 3 9 14 15 14 6 19 13 14 8 10 7 4 8 8 7 8 12 9 12 16
12 12 10 10 2 1 1 1 1 1 3 6 2 1 4 4 3 5 6 2 3 6 4 1 7 5 7 12 10 13 4 16 20 11 11 3 10 7 8 15 14 14 16 15 15
11 11 7 4 1 0 1 2 2 2 5 10 3 3 3 4 6 5 6 6 4 6 2 2 5 5 4 4 3 5 6 10 11 11 8 1 3 4 3 12 21 21 18 16 15
9 8 3 1 1 0 2 2 2 2 3 7 5 3 1 1 2 3 4 3 2 7 9 2 0 3 2 5 5 16 12 11 9 5 3 1 2 4 9 13 7 9 12 13 11
7 5 2 2 1 5 2 1 2 5 3 8 4 3 3 4 1 3 3 0 0 4 2 4 3 3 2 10 4 5 7 6 4 4 5 3 4 6 3 2 2 5 6 7 11
3 3 1 1 4 6 2 1 7 4 1 1 2 6 3 3 3 1 1 2 2 4 5 4 5 6 8 2 7 5 3 7 9 10 6 2 9 4 2 1 3 6 9 10 11
2 2 2 0 5 4 2 4 2 4 2 2 2 3 4 2 2 1 2 3 1 5 1 5 4 3 2 1 1 5 1 4 9 3 6 4 6 9 4 3 6 10 9 10 9
3 4 2 2 3 3 2 2 3 4 2 1 3 1 1 1 1 0 1 1 2 1 4 6 7 2 0 1 9 3 8 2 2 9 6 3 5 7 14 14 10 11 11 9 8
2 2 1 0 2 3 1 2 3 5 4 2 1 2 2 1 3 1 2 1 0 2 2 3 3 2 2 3 4 4 3 5 4 2 5 9 7 5 9 19 19 14 12 12 12
3 2 0 2 0 1 1 3 2 3 3 2 2 3 1 2 1 3 5 3 2 3 2 1 4 6 2 1 1 1 3 4 2 1 2 1 2 2 6 13 16 15 13 11 12
2 3 0 1 2 2 2 2 2 3 3 3 2 3 1 1 1 0 2 2 5 2 2 2 3 8 3 0 1 3 3 4 6 3 1 2 1 2 2 13 11 14 12 12 13
3 2 1 1 1 2 3 3 2 2 3 2 2 2 1 0 1 2 1 3 6 4 6 2 3 4 10 3 4 4 5 5 4 3 3 5 2 5 8 13 12 13 13 15 14
1 3 1 2 4 3 3 1 2 3 2 1 1 0 1 2 1 1 2 0 2 2 3 2 1 2 2 3 2 2 5 11 12 5 8 3 6 4 16 19 19 17 15 14 14
2 3 1 2 1 4 2 4 4 3 2 2 2 1 1 2 1 1 4 2 3 1 1 2 2 3 3 0 1 4 7 8 11 5 9 6 14 12 4 12 16 19 19 18 16
2 0 1 1 2 3 4 4 5 3 1 1 1 1 1 1 2 1 2 4 2 4 4 1 5 3 2 2 2 8 16 18 9 10 11 16 20 10 10 21 25 23 22 20 17
Wind_Direction
334 350 348 352 345 343 336 336 335 340 337 338 338 310 303 282 295 281 246 230 216 252 269 354 199 175 136 205 188 143 218 218 204 191 195 172 160 91 93 130 109 85 123 135 139
342 345 344 344 345 339 335 335 337 339 336 332 324 317 299 288 285 256 238 235 239 239 244 190 218 168 178 198 192 194 215 213 216 219 196 177 169 146 152 148 141 122 78 131 139
337 340 342 345 341 334 332 334 340 338 333 318 316 307 292 296 271 244 318 250 253 250 251 183 216 175 196 182 198 192 217 230 261 256 231 167 153 142 144 185 194 183 155 149 151
332 338 341 339 331 330 333 337 338 334 331 322 318 306 271 159 247 13 348 343 288 268 265 199 205 182 192 200 194 202 218 225 286 281 210 177 143 141 165 168 241 162 154 149 157
331 337 337 334 325 327 333 334 332 334 344 336 335 110 120 235 260 353 339 332 302 238 216 204 208 188 186 191 180 213 192 205 283 254 229 145 163 148 132 24 122 132 146 152 158
330 334 330 327 322 328 331 325 340 346 348 344 72 354 316 250 20 342 326 317 265 234 219 175 306 278 199 183 184 189 200 171 301 163 180 168 146 161 132 132 125 140 148 157 164
329 326 321 319 318 325 328 320 297 318 344 349 236 24 283 271 322 304 296 264 250 241 198 93 186 255 9 169 160 165 161 150 148 197 182 144 143 157 148 140 137 141 152 159 167
329 323 319 319 318 323 325 319 301 291 303 330 166 314 254 189 248 290 280 264 240 237 138 132 269 275 250 135 123 161 137 167 192 162 187 218 186 160 161 151 149 151 159 167 170
323 323 320 320 317 320 324 320 312 290 299 306 109 2 291 165 262 280 278 253 203 130 128 115 73 267 156 154 146 79 172 168 150 141 162 197 149 158 167 159 156 163 169 173 175
322 318 316 319 317 319 324 314 312 346 333 126 76 351 317 313 321 311 260 246 140 140 114 78 88 344 133 164 174 177 156 137 151 157 154 144 141 153 170 171 171 172 176 181 190
323 321 314 312 313 320 332 2 3 341 48 106 306 270 287 318 275 306 322 96 123 121 126 42 133 224 219 203 164 146 138 128 85 24 111 137 153 166 173 180 182 189 189 193 200
320 322 313 312 312 322 21 55 170 169 346 241 324 286 279 330 305 8 37 42 45 85 87 94 225 281 266 184 148 145 140 130 104 38 118 133 134 180 189 202 198 193 199 203 197
322 322 316 310 317 1 38 167 53 128 26 308 347 305 306 333 343 334 39 220 127 155 137 125 210 258 189 153 156 162 154 160 140 109 67 127 115 173 215 229 214 218 211 211 209
319 320 318 311 330 343 285 195 302 54 7 357 25 312 318 303 311 332 346 32 73 94 97 308 313 77 144 142 162 182 202 147 140 143 153 350 194 213 201 213 224 230 226 223 219
317 318 316 312 268 337 291 121 95 71 4 338 359 319 277 37 307 352 337 0 112 127 281 50 58 2 74 103 142 145 131 132 111 111 129 179 124 190 181 216 223 226 226 227 224
308 313 303 261 72 234 139 94 64 31 360 347 322 358 326 7 300 312 355 38 35 71 64 42 165 308 61 45 116 130 111 75 65 86 149 248 125 200 184 212 217 219 216 218 201
295 292 261 195 120 142 91 34 34 56 318 338 338 8 351 57 73 354 7 176 158 122 76 18 90 304 53 90 36 126 132 116 103 159 182 332 184 242 203 203 210 208 184 166 162
285 286 248 250 140 122 58 18 61 241 349 319 322 6 45 360 40 22 110 303 180 72 101 115 111 10 349 80 152 120 78 161 156 163 162 4 217 232 189 96 125 120 137 138 138
105 81 114 328 137 91 62 54 169 229 183 274 303 9 26 27 99 156 295 326 166 191 64 118 66 313 14 16 132 162 273 145 108 53 144 199 272 275 204 148 130 136 139 145 140
145 139 54 127 132 88 85 138 168 205 232 121 33 18 76 209 302 199 25 357 49 292 212 178 108 4 70 16 45 129 138 142 71 156 171 213 252 219 201 187 173 168 165 154 135
129 151 159 66 89 79 298 195 216 209 186 208 267 298 328 143 207 236 193 278 233 305 150 143 122 186 156 30 153 130 166 72 107 98 152 148 233 208 212 192 182 182 177 163 152
143 237 96 143 170 81 230 195 211 199 176 244 265 247 282 360 127 191 193 216 323 266 71 67 104 111 106 8 12 91 151 138 49 204 72 128 200 294 247 205 187 180 172 161 155
176 138 50 150 259 223 251 257 242 211 215 181 257 249 266 96 42 331 271 320 343 21 106 165 55 117 125 55 337 222 161 125 112 114 211 140 337 351 124 160 181 175 167 164 159
143 226 147 131 243 208 191 235 228 233 246 233 251 191 212 313 16 167 308 344 1 1 23 35 108 169 190 174 142 180 190 174 148 189 176 240 285 220 187 179 175 174 173 172 172
105 234 182 223 238 202 182 201 222 213 235 246 249 98 206 272 200 178 177 266 11 339 350 15 156 125 150 129 161 207 200 191 203 192 207 249 219 251 203 193 188 183 176 175 184
204 185 116 166 181 180 213 220 219 215 200 238 233 319 262 252 222 266 180 209 193 117 98 11 201 152 180 79 110 252 234 217 222 222 243 250 271 226 200 178 187 190 183 190 195
194 49 176 186 165 176 226 205 216 178 197 197 161 127 107 41 314 232 175 101 134 170 183 152 150 152 230 3 314 277 234 206 202 200 188 219 236 173 193 198 200 196 191 193 195